Location: Central Falls
(41.8900°N, 71.3929°W)
Time: 04:26:26
(UTC+00:00)

Vanguard 2 Rocket - Pass Details

Date: 05 December 2023
Orbit: 555 x 3309 km, 32.9° (Epoch: 01 March)

Event Time Altitude Azimuth Distance (km) Brightness Sun altitude
Rises 15:14:44 0° 167° (SSE) 5,521 12.3 23.0°
Reaches altitude 10° 15:24:20 10° 131° (SE) 5,376 12.0 23.6°
Maximum altitude 15:26:16 10° 124° (SE) 5,490 11.8 23.7°
Drops below altitude 10° 15:28:16 10° 117° (ESE) 5,651 11.7 23.8°
Sets 15:40:37 0° 85° (E) 7,217 11.6 24.4°
